Regional Weather Roundup
Issued by NWS Northern Indiana

Home | Current Version | Previous Version | Graphics & Text | Print | Product List | Glossary On
Versions: 1 2 3 4 5 6 7 8 9 10 11 12 13 14 15 16 17 18 19 20 21 22 23 24 25 26 27 28 29 30 31 32 33 34 35 36 37 38 39 40 41 42 43 44 45 46 47 48 49 50
000
ASUS43 KIWX 230600
RWRIWX

KIWX WEATHER ROUNDUP
NATIONAL WEATHER SERVICE NORTHERN INDIANA
200 AM EDT MON APR 23 2018

NOTE: "FAIR" INDICATES FEW OR NO CLOUDS BELOW 12,000 FEET WITH NO
SIGNIFICANT WEATHER AND/OR OBSTRUCTIONS TO VISIBILITY.

* THESE STATIONS ARE NOT UNDER NWS QUALITY CONTROL. THEY ALSO MAY NOT
  REPORT WEATHER SUCH AS PRECIPITATION OR FOG.

INZ001>027-230700-
NORTHERN INDIANA

CITY           SKY/WX    TMP DP  RH WIND       PRES   REMARKS
KNOX*          FAIR      45  23  42 E8        30.22F
SOUTH BEND     FAIR      47  20  34 E8        30.25F
6HR MIN TEMP:  46; 6HR MAX TEMP:  59;

GOSHEN         FAIR      42  23  46 E9        30.24F
6HR MIN TEMP:  41; 6HR MAX TEMP:  57;

MONTICELLO*    FAIR      48  21  34 NE9       30.18F
6HR MIN TEMP:  48; 6HR MAX TEMP:  62;

WARSAW*        FAIR      43  25  49 E10       30.23F
FORT WAYNE     MOCLDY    43  26  51 NE10      30.22F
6HR MIN TEMP:  43; 6HR MAX TEMP:  56;


$$
INZ028>050-230700-
CENTRAL INDIANA

CITY           SKY/WX    TMP DP  RH WIND       PRES   REMARKS
LAFAYETTE      FAIR      48  25  40 E14       30.16F
6HR MIN TEMP:  48; 6HR MAX TEMP:  60;

KOKOMO*        FAIR      45  26  47 NE12      30.18F
6HR MIN TEMP:  45; 6HR MAX TEMP:  59;

MUNCIE*        FAIR      48  28  46 E10       30.17F
6HR MIN TEMP:  48; 6HR MAX TEMP:  62;

INDIANAPOLIS   MOCLDY    51  31  46 NE14      30.13S
6HR MIN TEMP:  51; 6HR MAX TEMP:  63;


$$
MIZ043>046-050>051-056>058-064>065-071>073-077>080-230700-
SOUTHWEST LOWER MICHIGAN

CITY           SKY/WX    TMP DP  RH WIND       PRES   REMARKS
BATTLE CREEK   FAIR      46  24  42 E6        30.27S
6HR MIN TEMP:  46; 6HR MAX TEMP:  60;

BENTON HARBOR  FAIR      46  22  38 E3        30.25S
6HR MIN TEMP:  41; 6HR MAX TEMP:  57;

COLDWATER*     FAIR      45  22  40 E7        30.26F
6HR MIN TEMP:  44; 6HR MAX TEMP:  55;

HILLSDALE*     FAIR      43  19  39 E12       30.25F
HOLLAND        FAIR      43  27  53 E6        30.28R
6HR MIN TEMP:  43; 6HR MAX TEMP:  61;

GRAND RAPIDS   FAIR      43  29  57 E7        30.29R
6HR MIN TEMP:  43; 6HR MAX TEMP:  59;

KALAMAZOO      FAIR      47  23  38 E7        30.26F
6HR MIN TEMP:  46; 6HR MAX TEMP:  61;

THREE RIVERS*  FAIR      46  24  41 E7        30.26F
6HR MIN TEMP:  44; 6HR MAX TEMP:  59;


$$
OHZ001>008-015>018-024>025-230700-
NORTHWEST OHIO

CITY           SKY/WX    TMP DP  RH WIND       PRES   REMARKS
WAUSEON*       FAIR      39  27  60 NE8       30.26F
DEFIANCE       FAIR      43  26  51 NE7       30.25F
6HR MIN TEMP:  43; 6HR MAX TEMP:  54;

FINDLAY        FAIR      46  24  42 NE10      30.22F
6HR MIN TEMP:  46; 6HR MAX TEMP:  55;

TOLEDO EXPRESS FAIR      46  31  55 E10       30.26S
6HR MIN TEMP:  43; 6HR MAX TEMP:  54;

TOLEDO METCALF FAIR      44  33  65 NE6       30.27F
6HR MIN TEMP:  43; 6HR MAX TEMP:  51;

LIMA           FAIR      42  28  57 NE8       30.20F
6HR MIN TEMP:  40; 6HR MAX TEMP:  54;


$$
AND FOR LAKE MICHIGAN COASTAL AND OPEN LAKE BUOY OBSERVATIONS

STATION/POSITION TEMP    WIND        PRES    VSBY  WAVE
                 AIR SEA DIR/SP/G                  HT/PER
                 (F)     (DEG/KT/KT) (MB)    (MI)  (FT/S)
CALUMET HARBOR    42      50/  4/  5 1023.5R
MICHIGAN CITY     50      70/  8/  9   N/A
BURNS HARBOR      50     100/  7/ 10 1024.0F
SAINT JOSEPH      49      CALM  /  2 1025.4

$$
&&




USA.gov is the U.S. government's official web portal to all federal, state and local government web resources and services.